Location: ???????
(52.3000°N, 54.4667°E)
Time: 20:51:01
(UTC+00:00)

STARLINK-1121 - Pass Details

Date: 24 January 2020
Orbit: 523 x 525 km, 53.0° (Epoch: 16 February)

Event Time Altitude Azimuth Distance (km) Brightness Sun altitude
Rises 15:17:22 0° 280° (W) 2,701 8.5 -21.6°
Reaches altitude 10° 15:19:35 10° 281° (W) 1,815 7.3 -22.0°
Maximum altitude 15:23:43 89° 14° (NNE) 557 3.5 -22.6°
Enters shadow 15:23:47 87° 73° (ENE) 557 3.5 -22.6°
